SHT3B EGCC-EGLL

Flight info

Callsign SHT3B
Flight time N/A
Altitude 19000
Route LISTO2S LISTO L612 HON HON1H
Aircraft A320/M-SDE3FGHIJ1KRWXY/S

Departure

Time N/A
Airport Manchester Airport (EGCC)

Arrival

Time 2026-05-05 22:16
Airport London Heathrow Airport (EGLL)
Time Latitude Longitude Altitude Speed Heading
2026-05-05 22:03 51.94024 -1.08267 15579 ft 379 kts 141°
2026-05-05 22:03 51.92014 -1.05487 14960 ft 375 kts 140°
2026-05-05 22:03 51.90048 -1.02771 13982 ft 370 kts 140°
2026-05-05 22:03 51.88119 -1.00119 13373 ft 355 kts 140°
2026-05-05 22:04 51.86304 -0.97510 12878 ft 347 kts 134°
2026-05-05 22:04 51.84812 -0.94457 12371 ft 345 kts 122°
2026-05-05 22:04 51.83693 -0.91035 11865 ft 343 kts 115°
2026-05-05 22:04 51.82645 -0.87581 11383 ft 342 kts 115°
2026-05-05 22:05 51.81593 -0.84132 10872 ft 341 kts 115°
2026-05-05 22:05 51.80543 -0.80701 10392 ft 339 kts 115°
2026-05-05 22:05 51.79514 -0.77346 10247 ft 327 kts 115°
2026-05-05 22:05 51.78512 -0.74121 10119 ft 316 kts 118°
2026-05-05 22:06 51.77143 -0.71444 9990 ft 307 kts 143°
2026-05-05 22:06 51.75287 -0.70024 9988 ft 299 kts 169°
2026-05-05 22:06 51.73228 -0.70005 9994 ft 297 kts 192°
2026-05-05 22:06 51.71179 -0.70762 9986 ft 298 kts 195°
2026-05-05 22:07 51.69199 -0.71588 9947 ft 296 kts 196°
2026-05-05 22:07 51.67212 -0.72429 9606 ft 295 kts 196°
2026-05-05 22:07 51.65260 -0.73391 9252 ft 292 kts 207°
2026-05-05 22:07 51.63595 -0.75167 8768 ft 285 kts 219°
2026-05-05 22:08 51.62057 -0.77155 8198 ft 282 kts 221°
2026-05-05 22:08 51.60546 -0.79153 7632 ft 280 kts 221°
2026-05-05 22:08 51.59081 -0.81098 7474 ft 266 kts 221°
2026-05-05 22:08 51.57693 -0.82941 7323 ft 253 kts 221°
2026-05-05 22:09 51.56356 -0.84718 7167 ft 246 kts 221°
2026-05-05 22:09 51.55030 -0.86378 7032 ft 237 kts 210°
2026-05-05 22:09 51.53492 -0.87108 6755 ft 229 kts 186°
2026-05-05 22:09 51.51912 -0.87252 6295 ft 227 kts 181°
2026-05-05 22:10 51.50336 -0.87313 5804 ft 225 kts 181°
2026-05-05 22:10 51.48800 -0.87045 5315 ft 221 kts 155°
2026-05-05 22:10 51.47758 -0.85427 5117 ft 201 kts 104°
2026-05-05 22:10 51.47620 -0.83916 5163 ft 213 kts 88°
2026-05-05 22:11 51.47613 -0.81482 4674 ft 225 kts 89°
2026-05-05 22:11 51.47593 -0.78937 4037 ft 231 kts 88°
2026-05-05 22:11 51.47601 -0.76367 3591 ft 228 kts 88°
2026-05-05 22:11 51.47616 -0.73877 3265 ft 219 kts 88°
2026-05-05 22:12 51.47630 -0.71541 2975 ft 200 kts 88°
2026-05-05 22:12 51.47644 -0.69366 2739 ft 189 kts 88°
2026-05-05 22:12 51.47655 -0.67326 2465 ft 177 kts 88°
2026-05-05 22:12 51.47666 -0.65410 2218 ft 165 kts 88°
2026-05-05 22:13 51.47676 -0.63613 2011 ft 155 kts 88°
2026-05-05 22:13 51.47684 -0.61989 1810 ft 139 kts 88°
2026-05-05 22:13 51.47693 -0.60472 1626 ft 134 kts 88°
2026-05-05 22:13 51.47700 -0.58990 1437 ft 132 kts 89°
2026-05-05 22:14 51.47708 -0.57513 1260 ft 132 kts 88°
2026-05-05 22:14 51.47715 -0.56039 1073 ft 132 kts 88°
2026-05-05 22:14 51.47722 -0.54567 876 ft 132 kts 88°
2026-05-05 22:14 51.47728 -0.53095 700 ft 132 kts 88°
2026-05-05 22:15 51.47735 -0.51622 521 ft 131 kts 88°
2026-05-05 22:15 51.47743 -0.50162 325 ft 130 kts 88°
2026-05-05 22:15 51.47750 -0.48714 164 ft 130 kts 88°
2026-05-05 22:15 51.47756 -0.47316 88 ft 113 kts 88°
2026-05-05 22:16 51.47758 -0.46546 93 ft 30 kts 89°
2026-05-05 22:16 51.47758 -0.46276 89 ft 13 kts 90°
2026-05-05 22:16 51.47705 -0.46149 87 ft 16 kts 144°
2026-05-05 22:16 51.47605 -0.46094 88 ft 16 kts 215°
2026-05-05 22:17 51.47593 -0.46270 87 ft 17 kts 270°
2026-05-05 22:17 51.47593 -0.46473 87 ft 19 kts 270°
2026-05-05 22:17 51.47591 -0.46698 87 ft 19 kts 269°
2026-05-05 22:17 51.47583 -0.46905 90 ft 17 kts 268°
2026-05-05 22:18 51.47582 -0.47109 91 ft 20 kts 270°
2026-05-05 22:18 51.47581 -0.47341 90 ft 22 kts 270°
2026-05-05 22:18 51.47581 -0.47602 90 ft 25 kts 270°
2026-05-05 22:18 51.47579 -0.47872 90 ft 19 kts 269°
2026-05-05 22:19 51.47578 -0.48102 88 ft 22 kts 270°
2026-05-05 22:19 51.47578 -0.48363 88 ft 25 kts 270°
2026-05-05 22:19 51.47578 -0.48612 87 ft 17 kts 267°
2026-05-05 22:19 51.47575 -0.48811 87 ft 16 kts 269°
2026-05-05 22:20 51.47564 -0.48956 91 ft 12 kts 223°
2026-05-05 22:20 51.47496 -0.48912 87 ft 9 kts 120°
2026-05-05 22:20 51.47492 -0.48900 88 ft 0 kts 121°
2026-05-05 22:21 51.47489 -0.48896 88 ft 1 kts 142°
2026-05-05 22:21 51.47480 -0.48896 89 ft 2 kts 169°
2026-05-05 22:21 51.47456 -0.48894 88 ft 5 kts 180°
2026-05-05 22:21 51.47416 -0.48894 87 ft 4 kts 180°
2026-05-05 22:22 51.47404 -0.48894 87 ft 0 kts 179°